This is the latest recevied weather packets stored in our database for station/object KE8KMM. If no packets are shown the sender has not sent any weather packets the latest 10 day(s).
| Time | Temp. | Humidity | Pressure | Rain* | Wind** | Luminosity | Snow |
|---|---|---|---|---|---|---|---|
| 1777754063 | 6.67° C | 74% | 1015.3 hPa | 0 mm | - | 108 W/m² | - |
| 1777753758 | 6.67° C | 75% | 1015.3 hPa | 0 mm | - | 96 W/m² | - |
| 1777753456 | 6.67° C | 76% | 1015.2 hPa | 0 mm | - | 81 W/m² | - |
| 1777753154 | 6.67° C | 78% | 1015.3 hPa | 0 mm | - | 76 W/m² | - |
| 1777752849 | 6.67° C | 77% | 1015.2 hPa | 0 mm | - | 76 W/m² | - |
| 1777752547 | 6.67° C | 78% | 1015.4 hPa | 0 mm | - | 69 W/m² | - |
| 1777752242 | 6.67° C | 76% | 1015.2 hPa | 0 mm | - | 73 W/m² | - |
| 1777751940 | 6.67° C | 77% | 1015.3 hPa | 0 mm | - | 70 W/m² | - |
| 1777751636 | 6.67° C | 77% | 1015.7 hPa | 0 mm | - | 69 W/m² | - |
| 1777751333 | 6.67° C | 77% | 1015.5 hPa | 0 mm | - | 72 W/m² | - |
| 1777751030 | 6.67° C | 78% | 1015.4 hPa | 0 mm | - | 75 W/m² | - |
| 1777750726 | 6.67° C | 79% | 1015.5 hPa | 0 mm | - | 70 W/m² | - |
| 1777750423 | 6.67° C | 80% | 1015.3 hPa | 0 mm | - | 62 W/m² | - |
| 1777750119 | 6.67° C | 80% | 1015.4 hPa | 0 mm | - | 60 W/m² | - |
| 1777749816 | 6.67° C | 76% | 1015.5 hPa | 0 mm | - | 57 W/m² | - |
| 1777749513 | 6.67° C | 77% | 1015.4 hPa | 0 mm | - | 51 W/m² | - |
| 1777749211 | 6.67° C | 76% | 1015.5 hPa | 0 mm | - | 45 W/m² | - |
| 1777748908 | 6.67° C | 75% | 1015.6 hPa | 0 mm | - | 42 W/m² | - |
| 1777748606 | 7.22° C | 75% | 1015.6 hPa | 0 mm | - | 35 W/m² | - |
| 1777748301 | 7.78° C | 71% | 1015.5 hPa | 0 mm | - | 32 W/m² | - |
| 1777747997 | 7.78° C | 71% | 1015.4 hPa | 0 mm | - | 42 W/m² | - |
| 1777747694 | 7.78° C | 70% | 1015.3 hPa | 0 mm | - | 93 W/m² | - |
| 1777747389 | 8.33° C | 72% | 1015.4 hPa | 0 mm | - | 127 W/m² | - |
| 1777747086 | 8.33° C | 70% | 1015.5 hPa | 0 mm | - | 145 W/m² | - |
| 1777746782 | 8.89° C | 68% | 1015.4 hPa | 0 mm | - | 202 W/m² | - |
* Rain latest hour (hover to see other rain measurements)
** Current wind speed in m/s (hover to see current wind gust speed)